sat.trackr.live / text

‹ back to catalog

STARLINK-35725

NORAD 67565 · 2026-016E

PAYLOAD ACTIVE UNKNOWN

§ Identity

Operator
Country
US
Launch date
2026-01-25
Launch site
AFWTR
Launch vehicle
Mass (kg)
RCS (m²)

Purposes: comms

External: N2YO · Heavens-Above · Gunter

§ Orbital elements

Epoch: 2026-09-19T10:21:58.148064Z

Period
93.90 min
Inclination
97.2867°
Eccentricity
0.0000928
Mean motion
15.33469233 rev/d
Perigee alt
464.8 km
Apogee alt
466.1 km
Semi-major
6,843.6 km
B*
6.1336e-4
RAAN
321.0630°
Arg perigee
107.4660°
Mean anomaly
252.6684°
Rev number
3,655

§ Raw data

STARLINK-357251 67565U 26016E   26262.43192301  .00019793  00000+0  61336-3 0  99952 67565  97.2867 321.0630 0000928 107.4660 252.6684 15.33469233 36559

JSON: /api/v1/satellites/67565 · /tle

For live sub-satellite position, see the globe view (requires WebGL).

§ Visibility from observer

Set your observer location to see the next 7 days of passes ≥ 10°. The values pass through the URL so the page stays shareable.

No JS? Fill the form by hand. The geolocation button needs JavaScript.